Flag for Switzerland Weather past 2 weeks in Oftringen, Aargau, Switzerland

Now
61 °F

Cool.


Feels Like: 61 °F
Forecast: 60 / 76 °F
Wind: No wind

Location: Wynau

Current Time: Aug 31, 2015 at 3:40:11 AM

Latest Report: Aug 31, 2015 at 3:00 AM


Visibility: N/A

Pressure: 30.04 "Hg

Humidity: 93%

Dew point: 59 °F

Location of OftringenLocation

Historic Weather in Oftringen — Graph

°F

Oftringen temperature yesterday

Maximum temperature yesterday: 92 °F (at 4:00 PM)
Minimum temperature yesterday: 64 °F (at 11:00 PM)
Average temperature yesterday: 75 °F

Past Weeks' High & Low Weather Summary

 TemperatureHumidityPressure
High92 °F (Aug 30, 4:00 PM)100% (Aug 20, 4:00 AM)30.26 "Hg (Aug 20, 4:00 AM)
Low47 °F (Aug 26, 7:00 AM)23% (Aug 30, 5:00 PM)29.71 "Hg (Aug 24, 7:00 AM)
Average65 °F75%30.02 "Hg
* Reported Aug 16 2:00 AM — Aug 31 2:00 AM, Oftringen, Weather by CustomWeather, © 2015

Note: Actual official high and low records may vary slightly from our data, if they occured in-between our weather recording intervals... More about our weather records

Advertising

Oftringen weather history for previous 24 hours

 ConditionsComfort  
Time TempWeatherWind HumidityBarometerVisibility
2:00 AM
Mon, Aug 31
61 °FCool.1 mph92%30.05 "HgN/A
1:00 AM62 °FCool.No wind89%30.06 "HgN/A
12:00 AM64 °FMild.2 mph84%30.07 "HgN/A
11:00 PM
Sun, Aug 30
64 °FMild.2 mph87%30.07 "HgN/A
10:00 PM66 °FMild.2 mph76%30.06 "HgN/A
9:00 PM71 °FMild.2 mph55%30.03 "HgN/A
8:00 PM77 °FWarm.1 mph44%29.99 "HgN/A
7:00 PM83 °FPleasantly warm.1 mph40%29.97 "HgN/A
6:00 PM90 °FHot.3 mph25%29.95 "HgN/A
5:00 PM90 °FHot.3 mph23%29.96 "HgN/A
4:00 PM92 °FHot.6 mph27%29.97 "HgN/A
3:00 PM90 °FHot.2 mph33%29.99 "HgN/A
2:00 PM87 °FPleasantly warm.6 mph35%30.03 "HgN/A
1:00 PM85 °FPleasantly warm.5 mph37%30.06 "HgN/A
12:00 PM82 °FWarm.1 mph47%30.08 "HgN/A
11:00 AM80 °FWarm.2 mph55%30.10 "HgN/A
10:00 AM75 °FMild.3 mph67%30.12 "HgN/A
9:00 AM71 °FMild.1 mph83%30.13 "HgN/A
8:00 AM66 °FMild.No wind94%30.15 "HgN/A
7:00 AM65 °FMild.No wind96%30.14 "HgN/A
6:00 AM67 °FMild.1 mph93%30.13 "HgN/A
5:00 AM67 °FMild.No wind91%30.12 "HgN/A
4:00 AM67 °FMild.1 mph89%30.12 "HgN/A
3:00 AM66 °FMild.1 mph95%30.12 "HgN/A
Weather by CustomWeather, © 2015

See weather overviewHow to use our weather pages